Location: Ferris
(32.5340°N, 96.6656°W)
Time: 23:06:16
(UTC+00:00)

Cosmos 1354 Rocket - Pass Details

Date: 17 May 2026
Orbit: 761 x 778 km, 74.0° (Epoch: 7 June)

Event Time Altitude Azimuth Distance (km) Brightness Sun altitude
Rises 05:49:28 0° 324° (NW) 3,228 8.0 -37.5°
Reaches altitude 10° 05:52:28 10° 307° (NW) 2,296 6.9 -37.6°
Enters shadow 05:53:18 13° 299° (WNW) 2,090 6.6 -37.6°
